#timestamp,LO_Frequency,Hit,StdDev 
1685160015.1,286046998.3,N
1685160035.9,286046999.5,N
1685160055.7,286046998.9,N
1685160075.5,286046996.5,Y
1685160095.4,286046998.5,P
1685160115.2,286047001.1,P
1685160135.0,286046998.3,N
1685160136.0,286046998.3,N
1685160155.8,286046998.7,N
1685160175.6,286046998.5,N
1685160195.5,286046998.9,N
1685160215.3,286046999.3,N
1685160235.1,286046998.7,N
1685160255.9,286047000.9,N
1685160275.7,286047001.0,N
1685160295.5,286047001.2,N
1685160315.4,286046998.1,N
1685160335.2,286046998.6,N
1685160355.1,286047001.2,N
1685160356.0,286047001.2,N
1685160375.8,286046998.6,N
1685160395.6,286046999.6,N
1685160415.5,286046999.4,N
1685160435.3,286046998.4,N
1685160455.1,286046998.6,N
1685160475.9,286047000.6,N
1685160495.7,286047000.8,N
1685160515.6,286046998.1,N
1685160535.4,286046998.3,N
1685160555.2,286046996.6,N
1685160575.1,286046999.5,N
1685160576.0,286046999.5,N
1685160595.8,286046999.6,N
1685160615.6,286046998.9,N
1685160635.5,286046999.5,N
1685160655.3,286046999.6,N
1685160675.2,286046999.1,N
1685160695.9,286046999.5,N
1685160715.7,286046999.5,N
1685160735.6,286046996.8,N
1685160755.4,286046996.8,N
1685160775.2,286046999.5,N
1685160795.1,286046997.4,N
1685160796.0,286046997.4,N
1685160815.8,286046996.9,N
1685160835.7,286046996.5,N
1685160855.5,286046997.1,N
1685160875.3,286046999.5,N
1685160895.2,286046999.0,N
1685160915.0,286046998.6,N
1685160915.9,286046998.6,N
1685160935.7,286047000.8,N
1685160955.6,286046998.7,N
1685160975.4,286046998.8,N
1685160995.3,286046998.6,N
1685161015.1,286046999.1,N
1685161016.0,286046999.1,N
1685161035.8,286047000.4,N
1685161055.7,286046999.0,N
1685161075.5,286046999.0,N
1685161095.3,286046998.8,N
1685161115.2,286046998.1,N
1685161135.0,286047000.8,N
1685161135.9,286047000.8,N
1685161155.8,286046999.0,N
1685161175.6,286047001.4,N
1685161195.4,286047004.0,Y
1685161215.3,286047005.2,P
1685161235.1,286047008.6,N
1685161255.9,286047010.3,N
1685161275.7,286047013.6,Y
1685161295.5,286047009.0,P
1685161315.4,286047012.3,P
1685161335.2,286047012.8,P
1685161355.1,286047015.8,Y
1685161356.0,286047015.8,P
1685161375.8,286047011.2,P
1685161395.6,286047012.5,P
1685161415.5,286047017.1,Y
1685161435.3,286047004.5,P
1685161455.2,286047006.7,N
1685161475.9,286047009.8,N
1685161495.7,286047011.1,Y
1685161515.6,286047007.0,P
1685161535.4,286047008.5,P
1685161555.2,286047007.9,P
1685161575.1,286047010.5,Y
1685161576.0,286047010.5,P
1685161595.8,286047002.6,N
1685161615.7,286047002.0,N
1685161635.5,286047004.4,N
1685161655.3,286047001.6,N
1685161675.2,286047002.3,N
1685161695.0,286047002.8,N
1685161695.9,286047002.8,N
1685161715.8,286047000.4,N
1685161735.6,286047000.2,N
1685161755.4,286047000.0,N
1685161775.3,286047000.6,N
1685161795.1,286046998.4,N
1685161815.8,286046996.9,N
1685161835.7,286046997.9,N
1685161855.5,286046996.4,N
1685161875.3,286046993.5,N
1685161895.2,286046992.6,N
1685161915.0,286046990.5,N
1685161915.9,286046990.5,N
1685161935.8,286046989.0,N
1685161955.6,286046989.0,N
1685161975.4,286046987.5,N
1685161995.3,286046986.3,N
1685162015.1,286046986.2,N
1685162035.9,286046986.0,N
1685162055.7,286046983.7,N
1685162075.5,286046986.8,N
1685162095.4,286046985.0,N
1685162115.2,286046984.9,N
1685162135.0,286046982.5,N
1685162135.9,286046982.5,N
1685162155.8,286046983.2,N
1685162175.6,286046983.4,N
1685162195.5,286046981.0,N
1685162215.3,286046981.7,N
1685162235.1,286046979.9,N
1685162255.9,286046977.6,Y
1685162275.7,286046987.1,P
1685162295.5,286046987.9,P
1685162315.4,286046988.4,P
1685162335.2,286046986.5,Y
1685162355.1,286046995.4,P
1685162356.0,286046995.4,N
1685162375.8,286046994.9,N
1685162395.6,286046995.2,N
1685162415.5,286046998.0,N
1685162435.3,286046996.2,N
1685162455.1,286046995.6,N
1685162475.9,286046996.1,N
1685162495.7,286046994.5,N
1685162515.6,286046994.4,N
1685162535.4,286046992.3,Y
1685162555.2,286046997.4,P
1685162575.1,286046997.2,N
1685162576.0,286046997.2,N
1685162595.8,286046999.2,N
1685162615.7,286046995.4,Y
1685162635.5,286046999.5,P
1685162655.3,286046999.5,N
1685162675.2,286046998.8,N
1685162695.9,286046996.6,Y
1685162715.7,286046996.9,P
1685162735.6,286046996.6,P
1685162755.4,286046997.1,P
1685162775.3,286046997.5,Y
1685162795.1,286047000.9,P
1685162796.0,286047000.9,N
1685162815.8,286046998.1,N
1685162835.7,286046998.2,N
1685162855.5,286046998.6,N
1685162875.3,286047001.2,N
1685162895.2,286046998.8,N
1685162915.0,286046998.3,N
1685162915.9,286046998.3,N
1685162935.8,286047000.8,N
1685162955.6,286046998.2,N
1685162975.4,286046999.4,N
1685162995.3,286046996.5,N
1685163015.1,286046996.8,N
1685163035.8,286046997.7,N
1685163055.7,286046999.2,N
1685163075.5,286046999.0,N
1685163095.4,286046999.5,N
1685163115.2,286046996.5,N
1685163135.0,286046999.4,N
1685163135.9,286046999.4,N
1685163155.8,286046999.3,N
1685163175.6,286046998.7,N
1685163195.4,286046999.4,N
1685163215.3,286046999.1,N
1685163235.1,286046999.5,N
1685163255.9,286047001.2,N
1685163275.7,286047001.0,N
1685163295.5,286047000.9,N
1685163315.4,286047000.9,N
1685163335.2,286046998.3,N
1685163355.0,286047000.8,N
1685163355.9,286047000.8,N
1685163375.8,286047001.1,N
1685163395.6,286047000.6,N
1685163415.5,286047000.4,N
1685163435.3,286047000.4,N
1685163455.1,286047000.8,N
1685163475.9,286047001.1,N
1685163495.7,286047000.4,N
1685163515.5,286046998.9,N
1685163535.4,286046998.4,N
1685163555.2,286047000.9,N
1685163575.0,286046998.3,N
1685163576.0,286046998.3,N
1685163595.8,286046999.5,N
